Regional Weather Roundup
Issued by NWS Wakefield, VA

Home | Current Version | Previous Version | Text Only | Print | Product List | Glossary Off
Versions: 1 2 3 4 5 6 7 8 9 10 11 12 13 14 15 16 17 18 19 20 21 22 23 24 25 26 27 28
000 ASUS41 KAKQ 252315 RWRAKQ REGIONAL WEATHER ROUNDUP NATIONAL WEATHER SERVICE WAKEFIELD VA 700 PM EDT WED MAY 25 2016 Note: "fair" indicates few or no clouds below 12,000 feet with no significant weather and/or obstructions to visibility. * = Denotes station may not report precipitation (e.g., rain,snow,etc.), thunder or fog. VAZ042-051-052>054-056-260000- NORTHERN VIRGINIA CITY SKY/WX TMP DP RH WIND PRES REMARKS WASH NATIONAL PTSUNNY 84 51 31 W9 30.10S DULLES FAIR 81 55 40 S7 30.10F FORT BELVOIR FAIR 83 56 39 S2 30.10S QUANTICO FAIR 79 59 50 SW3 30.10F FREDERICKSBRG* FAIR 84 55 37 SW3 30.09F STAFFORD* FAIR 82 57 42 CALM 30.14F WARRENTON FAIR 82 52 34 CALM 30.10S CULPEPER* FAIR 84 57 39 S3 30.11S MANASSAS* SUNNY 82 52 34 S5 30.10F LEESBURG* FAIR 86 55 35 SW7 30.11S WINCHESTER FAIR 81 54 39 SE5 30.11S FRONT ROYAL* FAIR 81 57 44 CALM 30.10S LURAY* FAIR 82 54 36 SW6 30.12S $$ VAZ048-049-060>072-079>083-260000- CENTRAL AND SOUTH CENTRAL VIRGINIA CITY SKY/WX TMP DP RH WIND PRES REMARKS RICHMOND PTSUNNY 83 53 35 W9 30.11F CHESTERFIELD* FAIR 84 52 32 SW5 30.13F PETERSBURG* FAIR 85 54 34 SW7 30.12F HANOVER FAIR 83 53 35 S7 30.13S TAPPAHANNOCK* FAIR 85 53 33 SW3 30.12S QUINTON* FAIR 83 57 40 CALM 30.11F CHARLOTTSVILLE FAIR 82 55 39 S7 30.11S GORDONSVILLE* FAIR 82 58 43 CALM 30.11R ORANGE* FAIR 82 55 39 CALM 30.13S LOUISA* FAIR 84 61 45 CALM 30.11S BUMPASS* FAIR 82 59 46 CALM 30.12S FARMVILLE* NOT AVBL CREWE* FAIR 83 56 39 S3 30.12F FORT PICKETT* NOT AVBL CHASE CITY* FAIR 83 53 36 CALM 30.13F CLARKSVILLE* FAIR 82 59 44 CALM 30.13F SOUTH HILL* FAIR 82 59 45 SW3 30.19F LAWRENCEVILLE* FAIR 82 62 49 SW3 30.13F EMPORIA* FAIR N/A N/A N/A CALM 30.15S $$ VAZ088>098-260000- SOUTHEAST VIRGINIA CITY SKY/WX TMP DP RH WIND PRES REMARKS NORFOLK FAIR 83 59 44 E7 30.12F VIRGINIA BEACH FAIR 80 62 54 E6 30.12F NORFOLK NAVAL FAIR 85 54 34 W6 30.13F WEST POINT* FAIR 82 58 43 CALM 30.13S SALUDA* FAIR 77 67 71 CALM 30.11S NEWPORT NEWS FAIR 85 57 38 CALM 30.12F LANGLEY AFB FAIR 81 61 51 E7 30.12F FORT EUSTIS FAIR 85 64 49 SW2 30.10F WILLIAMSBURG* FAIR 84 61 45 S3 30.12F HR EXEC AP* FAIR 84 57 39 CALM 30.14S FRANKLIN* FAIR 84 55 36 W6 30.13F US460-WAKEFLD FAIR 85 52 32 SW6 30.12F $$ VAZ020-022-025-037-045-260000- WEST CENTRAL AND SOUTHWEST VIRGINIA CITY SKY/WX TMP DP RH WIND PRES REMARKS STAUNTON* FAIR 80 54 41 S3 30.15S WAYNESBORO* FAIR 80 52 38 SE5 30.15S HOT SPRINGS VA FAIR 72 51 46 SW10 30.26S LYNCHBURG FAIR 79 56 45 S6 30.16S DANVILLE FAIR 83 56 39 S3 30.14F SOUTH BOSTON* FAIR 83 53 34 W3 30.14S MARTINSVILLE FAIR 80 57 44 CALM 30.17F ROANOKE PTSUNNY 83 55 38 CALM 30.16S BLACKSBURG CLOUDY 78 58 49 CALM 30.23S DUBLIN* FAIR 80 55 42 CALM 30.21S MARION* FAIR 78 56 47 W10 30.24F HILLSVILLE* FAIR 74 58 55 S5 30.23S RICHLANDS* FAIR 75 49 39 W6 30.23S WISE* PTSUNNY 77 46 33 SW10 30.23F ABINGDON* PTSUNNY 78 58 49 CALM 30.20F $$ MDZ021>025-VAZ099-100-260000- SOUTHERN MARYLAND AND THE DELMARVA PENINSULA CITY SKY/WX TMP DP RH WIND PRES REMARKS PATUXENT RIVER PTSUNNY 78 54 43 SE8 30.11S BAY BRIDGE APT MOSUNNY 82 55 39 S6 30.09S LEONARDTOWN SUNNY 82 50 32 S5 30.13R DOVER MOSUNNY 82 61 48 SW8 30.08F GEORGETOWN PTSUNNY 83 50 31 W3 30.11F EASTON SUNNY 82 61 47 SW6 30.14S CAMBRIDGE SUNNY 81 54 39 CALM 30.11S SALISBURY SUNNY 81 56 42 SW6 30.11F OCEAN CITY MOSUNNY 81 51 35 W9 30.12S WALLOPS ISLAND FAIR 77 60 55 S7 30.13F ACCOMACK* FAIR 79 50 36 S8 30.13S $$ NCZ012>017-030>032-260000- NORTH CENTRAL AND EASTERN NORTH CAROLINA CITY SKY/WX TMP DP RH WIND PRES REMARKS ROANOKE RAPIDS FAIR 84 57 39 SW5 30.14S RALEIGH PTSUNNY 83 57 41 W8 30.15F ELIZABETH CITY SUNNY 82 59 45 SW6 30.14S AHOSKIE* NOT AVBL EDENTON* SUNNY 84 58 40 SW3 30.15S CURRITUCK* MOSUNNY 85 56 36 SW5 30.15R KILL DEVIL HLS SUNNY 82 57 42 S3 30.14F MANTEO SUNNY 79 62 57 SW10 30.16S CAPE HATTERAS SUNNY 73 68 84 SW8 30.18F TARBORO* FAIR 85 58 39 SW3 30.15S GOLDSBORO SUNNY 86 53 31 W3 30.13F WASHINGTON SUNNY 84 55 37 S6 30.14F GREENVILLE MOSUNNY 84 59 42 CALM 30.16S NEW BERN SUNNY 80 57 45 S10 30.17F WILMINGTON SUNNY 80 59 48 S13 30.17F $$ VAZ048-260000- ELSEWHERE CITY SKY/WX TMP DP RH WIND PRES REMARKS HARRISBURG PA MOSUNNY 80 54 40 SW7 30.06F BALTIMORE PTSUNNY 84 48 28 W6 30.08F ANNAPOLIS MOSUNNY 84 53 34 SW5 30.08F ANDREWS AFB FAIR 82 55 39 S9 30.10S PHILADELPHIA PTSUNNY 84 47 27 SW13 30.07S HENDERSON NC SUNNY 81 54 39 SW5 30.15F GREENSBORO PTSUNNY 82 51 34 SW7 30.15F ROCKY MOUNT MOSUNNY 85 57 38 SW5 30.14F $$ VAZ100-260000- MARINE STATION/POSITION TIME TEMP WIND PRES WAVE SWELL AIR SEA DIR/SP/G HT/PER HT/PER (UTC) (F) (DEG/KT/KT) (MB) (FT/S) (FT/S) BRANDYWINE LGT 2200 280/ 11/ 13 1019.5F CAPE MAY NJ 2200 67 230/ 3/ 5 1019.4F LEWES DE 2200 61 CALM / 1 1019.6S 15NM E FENWICK I 2250 65 58 1019.7F 2/ 9 OCEAN-CITY-INLET 2200 66 290/ 10/ 12 1020.3R WACHAPREAGUE VA 2200 78 180/ 7/ 11 1020.0S THOMAS POINT MD 2300 79 64 190/ 11/ 12 1020.2F GOOSES REEF MD 2200 78 67 240/ 6/ 8 1020.5F 0 COVE POINT MD 2200 190/ 10/ 11 1020.3F SOLOMONS ISLAND 2200 65 120/ 7/ 10 N/A BISHOPS HEAD MD 2200 73 150/ 9/ 10 1020.2F PINEY POINT MD 2200 160/ 10/ 11 N/A POTOMAC MD 2200 72 69 150/ 6/ 6 1019.0F CAMBRIDGE MD 2200 64 270/ 5/ 9 1018.8F LEWISETTA VA 2200 71 110/ 10/ 11 1019.3F RAPPAHANNOCK LGT 2200 170/ 7/ 7 1020.8F STINGRAY PT 2200 74 70 130/ 6/ 6 1020.5F 0 YORK RVR RNG VA 2200 150/ 13/ 14 1019.7F YORKTOWN VA 2200 69 110/ 7/ 7 1019.9F JAMESTOWN VA 2200 84 72 CALM / 2 N/A 0 DOMINION TERM VA 2200 310/ 3/ 5 1020.4R KIPTOPEKE VA 2200 66 170/ 9/ 9 N/A CHES BAY BRIDGE 2200 65 80/ 6/ 8 1020.4F CAPE HENRY VA 2200 120/ 7/ 10 N/A CHESAPEAKE LGHT 2200 76 130/ 13/ 15 1021.3S WILLOUBY STN VA 2200 100/ 7/ 8 1021.4S CAPE HENRY BUOY 2212 64 N/A 2/ 8 1ST LANDING BUOY 2200 70 67 120/ 6/ 8 1020.5F 1/ 4 CAPE CHARLES BUO 2226 68 N/A 1/ 8 2/ 8 OFFSHORE WE BUOY 2221 65 N/A 2/ 8 2/ 8 64NM E OF VA BCH 2250 66 61 190/ 6/ 8 1020.9F 2/ 8 2/ 8 DUCK PIER NC 2200 61 150/ 7/ 8 1020.2F 44100 DUCK FRF 2224 66 N/A 2/ 9 44056 DUCK FRF 2211 65 N/A 2/ 9 OREGON INLET NC 2200 73 190/ 15/ 17 1021.4F HATTERAS NC 2200 70 200/ 7/ 11 1021.8F DIAMOND SHLS NC 2250 74 73 220/ 10/ 10 1022.1F 2/ 8 2/ 8 CAPE LOOKOUT NC 2C1F1C2F2C3F3C4F4C5F5C6F6C7F7C8M1C9!

USA.gov is the U.S. government's official web portal to all federal, state and local government web resources and services.